Time,TemperatureF,DewpointF,PressureIn,WindDirection,WindDirectionDegrees,WindSpeedMPH,WindSpeedGustMPH,Humidity,HourlyPrecipIn,Conditions,Clouds,dailyrainin,SoftwareType,DateUTC
2013-04-28 00:00:00,46.1,37.3,-100.00,WSW,237,1.6,3.4,71,0.00,,,-99.99,HOBO +U30 +Weather +,2013-04-28 04:00:00,
2013-04-28 00:15:00,45.5,37.2,-100.00,WSW,237,1.6,4.3,72,0.00,,,-99.99,HOBO +U30 +Weather +,2013-04-28 04:15:00,
2013-04-28 00:30:00,45.8,37.3,-100.00,WSW,237,1.6,4.3,72,0.00,,,-99.99,HOBO +U30 +Weather +,2013-04-28 04:30:00,
2013-04-28 00:45:00,44.9,37.4,-100.00,WSW,240,2.0,4.9,74,0.00,,,-99.99,HOBO +U30 +Weather +,2013-04-28 04:45:00,
2013-04-28 01:00:00,44.1,37.1,-100.00,WSW,241,1.6,3.8,76,0.00,,,-99.99,HOBO +U30 +Weather +,2013-04-28 05:00:00,
2013-04-28 01:15:00,44.8,37.2,-100.00,WSW,241,1.6,3.8,74,0.00,,,-99.99,HOBO +U30 +Weather +,2013-04-28 05:15:00,
2013-04-28 01:30:00,45.1,36.8,-100.00,WSW,248,2.5,7.2,72,0.00,,,-99.99,HOBO +U30 +Weather +,2013-04-28 05:30:00,
2013-04-28 01:45:00,44.6,36.2,-100.00,WSW,244,0.9,3.8,72,0.00,,,-99.99,HOBO +U30 +Weather +,2013-04-28 05:45:00,
2013-04-28 02:00:00,45.3,36.4,-100.00,WSW,244,1.6,3.8,70,0.00,,,-99.99,HOBO +U30 +Weather +,2013-04-28 06:00:00,
2013-04-28 02:15:00,44.1,36.1,-100.00,WSW,243,0.4,2.5,73,0.00,,,-99.99,HOBO +U30 +Weather +,2013-04-28 06:15:00,
2013-04-28 02:30:00,42.8,35.6,-100.00,WSW,243,0.0,2.0,75,0.00,,,-99.99,HOBO +U30 +Weather +,2013-04-28 06:30:00,
2013-04-28 02:45:00,42.3,36.2,-100.00,WSW,243,0.0,0.9,78,0.00,,,-99.99,HOBO +U30 +Weather +,2013-04-28 06:45:00,
2013-04-28 03:00:00,40.7,35.2,-100.00,WSW,243,0.0,1.3,80,0.00,,,-99.99,HOBO +U30 +Weather +,2013-04-28 07:00:00,
2013-04-28 03:15:00,40.4,36.0,-100.00,WSW,243,0.0,0.0,84,0.00,,,-99.99,HOBO +U30 +Weather +,2013-04-28 07:15:00,
2013-04-28 03:30:00,41.0,36.5,-100.00,WSW,243,0.4,2.0,83,0.00,,,-99.99,HOBO +U30 +Weather +,2013-04-28 07:30:00,
2013-04-28 03:45:00,40.3,36.2,-100.00,WSW,243,0.4,1.3,85,0.00,,,-99.99,HOBO +U30 +Weather +,2013-04-28 07:45:00,
2013-04-28 04:00:00,40.1,36.6,-100.00,WSW,243,0.4,1.6,87,0.00,,,-99.99,HOBO +U30 +Weather +,2013-04-28 08:00:00,
2013-04-28 04:15:00,39.5,36.2,-100.00,WSW,243,0.0,0.0,87,0.00,,,-99.99,HOBO +U30 +Weather +,2013-04-28 08:15:00,
2013-04-28 04:30:00,39.2,36.1,-100.00,WSW,243,0.0,0.0,88,0.00,,,-99.99,HOBO +U30 +Weather +,2013-04-28 08:30:00,
2013-04-28 04:45:00,39.1,36.2,-100.00,WSW,243,0.0,0.0,89,0.00,,,-99.99,HOBO +U30 +Weather +,2013-04-28 08:45:00,
2013-04-28 05:00:00,38.9,36.3,-100.00,WSW,243,0.0,0.0,90,0.00,,,-99.99,HOBO +U30 +Weather +,2013-04-28 09:00:00,
2013-04-28 05:15:00,38.3,35.9,-100.00,WSW,243,0.4,2.0,90,0.00,,,-99.99,HOBO +U30 +Weather +,2013-04-28 09:15:00,
2013-04-28 05:30:00,39.0,37.1,-100.00,WSW,243,0.4,2.0,92,0.00,,,-99.99,HOBO +U30 +Weather +,2013-04-28 09:30:00,
2013-04-28 05:45:00,39.9,37.0,-100.00,WSW,243,0.0,0.0,89,0.00,,,-99.99,HOBO +U30 +Weather +,2013-04-28 09:45:00,
2013-04-28 06:00:00,40.1,36.7,-100.00,WSW,243,0.0,0.0,87,0.00,,,-99.99,HOBO +U30 +Weather +,2013-04-28 10:00:00,
2013-04-28 06:15:00,40.8,37.2,-100.00,WSW,243,0.0,0.0,86,0.00,,,-99.99,HOBO +U30 +Weather +,2013-04-28 10:15:00,
2013-04-28 06:30:00,44.0,38.3,-100.00,WSW,243,0.0,1.3,80,0.00,,,-99.99,HOBO +U30 +Weather +,2013-04-28 10:30:00,
2013-04-28 06:45:00,45.2,38.7,-100.00,WSW,243,0.0,0.4,77,0.00,,,-99.99,HOBO +U30 +Weather +,2013-04-28 10:45:00,
2013-04-28 07:00:00,46.3,40.7,-100.00,WSW,243,0.0,0.9,80,0.00,,,-99.99,HOBO +U30 +Weather +,2013-04-28 11:00:00,
2013-04-28 07:15:00,44.0,39.5,-100.00,WSW,243,1.6,3.8,84,0.00,,,-99.99,HOBO +U30 +Weather +,2013-04-28 11:15:00,
2013-04-28 07:30:00,44.2,39.4,-100.00,SSW,209,2.9,4.9,83,0.00,,,-99.99,HOBO +U30 +Weather +,2013-04-28 11:30:00,
2013-04-28 07:45:00,47.6,40.7,-100.00,SSW,199,0.0,1.6,76,0.00,,,-99.99,HOBO +U30 +Weather +,2013-04-28 11:45:00,
2013-04-28 08:00:00,49.0,41.0,-100.00,SSW,199,0.9,2.9,73,0.00,,,-99.99,HOBO +U30 +Weather +,2013-04-28 12:00:00,
2013-04-28 08:15:00,50.4,41.1,-100.00,SSW,204,1.3,3.8,70,0.00,,,-99.99,HOBO +U30 +Weather +,2013-04-28 12:15:00,
2013-04-28 08:30:00,52.5,41.7,-100.00,SW,218,0.9,3.4,66,0.00,,,-99.99,HOBO +U30 +Weather +,2013-04-28 12:30:00,
2013-04-28 08:45:00,53.1,41.2,-100.00,SW,225,1.3,4.5,63,0.00,,,-99.99,HOBO +U30 +Weather +,2013-04-28 12:45:00,
2013-04-28 09:00:00,54.6,41.7,-100.00,West,268,1.3,3.4,61,0.00,,,-99.99,HOBO +U30 +Weather +,2013-04-28 13:00:00,
2013-04-28 09:15:00,56.4,42.9,-100.00,West,268,1.3,3.4,60,0.00,,,-99.99,HOBO +U30 +Weather +,2013-04-28 13:15:00,
2013-04-28 09:30:00,57.2,41.5,-100.00,West,267,1.3,4.3,55,0.00,,,-99.99,HOBO +U30 +Weather +,2013-04-28 13:30:00,
2013-04-28 09:45:00,58.5,41.6,-100.00,South,184,2.0,6.3,53,0.00,,,-99.99,HOBO +U30 +Weather +,2013-04-28 13:45:00,
2013-04-28 10:00:00,59.1,41.6,-100.00,South,180,2.5,6.3,52,0.00,,,-99.99,HOBO +U30 +Weather +,2013-04-28 14:00:00,
2013-04-28 10:15:00,60.4,42.4,-100.00,SSW,202,2.9,6.7,51,0.00,,,-99.99,HOBO +U30 +Weather +,2013-04-28 14:15:00,
2013-04-28 10:30:00,60.5,41.8,-100.00,South,175,2.9,8.3,50,0.00,,,-99.99,HOBO +U30 +Weather +,2013-04-28 14:30:00,
2013-04-28 10:45:00,61.9,40.6,-100.00,South,184,2.9,7.4,45,0.00,,,-99.99,HOBO +U30 +Weather +,2013-04-28 14:45:00,
2013-04-28 11:00:00,62.1,40.8,-100.00,South,183,3.8,10.1,45,0.00,,,-99.99,HOBO +U30 +Weather +,2013-04-28 15:00:00,
2013-04-28 11:15:00,63.3,40.2,-100.00,SSE,153,4.5,9.2,42,0.00,,,-99.99,HOBO +U30 +Weather +,2013-04-28 15:15:00,
2013-04-28 11:30:00,65.4,41.2,-100.00,South,188,4.3,10.1,41,0.00,,,-99.99,HOBO +U30 +Weather +,2013-04-28 15:30:00,
2013-04-28 11:45:00,62.9,36.4,-100.00,SSE,168,4.9,10.3,37,0.00,,,-99.99,HOBO +U30 +Weather +,2013-04-28 15:45:00,
2013-04-28 12:00:00,64.9,36.4,-100.00,SSW,213,2.9,7.8,34,0.00,,,-99.99,HOBO +U30 +Weather +,2013-04-28 16:00:00,
2013-04-28 12:15:00,65.1,39.6,-100.00,South,191,2.9,8.7,39,0.00,,,-99.99,HOBO +U30 +Weather +,2013-04-28 16:15:00,
2013-04-28 12:30:00,65.9,38.2,-100.00,SW,230,4.5,18.6,36,0.00,,,-99.99,HOBO +U30 +Weather +,2013-04-28 16:30:00,
2013-04-28 12:45:00,67.0,40.9,-100.00,SSW,206,4.5,9.6,38,0.00,,,-99.99,HOBO +U30 +Weather +,2013-04-28 16:45:00,
2013-04-28 13:00:00,66.1,36.8,-100.00,ESE,117,4.9,12.5,33,0.00,,,-99.99,HOBO +U30 +Weather +,2013-04-28 17:00:00,
2013-04-28 13:15:00,67.2,36.8,-100.00,SE,138,4.3,10.1,32,0.00,,,-99.99,HOBO +U30 +Weather +,2013-04-28 17:15:00,
2013-04-28 13:30:00,67.3,37.1,-100.00,WSW,239,4.3,11.2,32,0.00,,,-99.99,HOBO +U30 +Weather +,2013-04-28 17:30:00,
2013-04-28 13:45:00,68.1,37.7,-100.00,WSW,247,3.4,11.2,32,0.00,,,-99.99,HOBO +U30 +Weather +,2013-04-28 17:45:00,
2013-04-28 14:00:00,68.0,38.6,-100.00,West,260,4.5,10.1,34,0.00,,,-99.99,HOBO +U30 +Weather +,2013-04-28 18:00:00,
2013-04-28 14:15:00,69.2,39.6,-100.00,WSW,239,3.8,11.6,33,0.00,,,-99.99,HOBO +U30 +Weather +,2013-04-28 18:15:00,
2013-04-28 14:30:00,70.3,40.4,-100.00,South,188,4.9,10.7,33,0.00,,,-99.99,HOBO +U30 +Weather +,2013-04-28 18:30:00,
2013-04-28 14:45:00,69.2,40.2,-100.00,South,178,4.3,13.2,34,0.00,,,-99.99,HOBO +U30 +Weather +,2013-04-28 18:45:00,
2013-04-28 15:00:00,68.5,36.9,-100.00,SSW,211,4.9,11.6,31,0.00,,,-99.99,HOBO +U30 +Weather +,2013-04-28 19:00:00,
2013-04-28 15:15:00,67.8,35.4,-100.00,SW,234,4.3,10.1,30,0.00,,,-99.99,HOBO +U30 +Weather +,2013-04-28 19:15:00,
2013-04-28 15:30:00,70.6,39.2,-100.00,South,190,3.4,8.3,31,0.00,,,-99.99,HOBO +U30 +Weather +,2013-04-28 19:30:00,
2013-04-28 15:45:00,69.3,39.3,-100.00,South,174,7.4,13.6,33,0.00,,,-99.99,HOBO +U30 +Weather +,2013-04-28 19:45:00,
2013-04-28 16:00:00,68.4,39.8,-100.00,SSE,159,7.2,14.1,35,0.00,,,-99.99,HOBO +U30 +Weather +,2013-04-28 20:00:00,
2013-04-28 16:15:00,65.8,38.6,-100.00,SSE,167,5.8,13.0,36,0.00,,,-99.99,HOBO +U30 +Weather +,2013-04-28 20:15:00,
2013-04-28 16:30:00,67.1,39.5,-100.00,SSE,160,5.4,12.5,36,0.00,,,-99.99,HOBO +U30 +Weather +,2013-04-28 20:30:00,
2013-04-28 16:45:00,68.3,40.5,-100.00,SSE,163,6.3,14.1,36,0.00,,,-99.99,HOBO +U30 +Weather +,2013-04-28 20:45:00,
2013-04-28 17:00:00,67.0,39.0,-100.00,SSE,167,7.2,14.5,35,0.00,,,-99.99,HOBO +U30 +Weather +,2013-04-28 21:00:00,
2013-04-28 17:15:00,67.0,37.6,-100.00,SSE,159,6.7,13.2,33,0.00,,,-99.99,HOBO +U30 +Weather +,2013-04-28 21:15:00,
2013-04-28 17:30:00,66.0,37.7,-100.00,South,175,7.4,15.9,35,0.00,,,-99.99,HOBO +U30 +Weather +,2013-04-28 21:30:00,
2013-04-28 17:45:00,64.8,37.1,-100.00,South,181,7.4,16.6,35,0.00,,,-99.99,HOBO +U30 +Weather +,2013-04-28 21:45:00,
2013-04-28 18:00:00,64.7,36.9,-100.00,South,177,6.7,14.5,35,0.00,,,-99.99,HOBO +U30 +Weather +,2013-04-28 22:00:00,
2013-04-28 18:15:00,63.4,36.1,-100.00,South,178,7.2,15.4,36,0.00,,,-99.99,HOBO +U30 +Weather +,2013-04-28 22:15:00,
2013-04-28 18:30:00,62.2,34.4,-100.00,SSW,198,6.7,13.6,35,0.00,,,-99.99,HOBO +U30 +Weather +,2013-04-28 22:30:00,
2013-04-28 18:45:00,61.2,33.7,-100.00,SSW,208,7.2,15.9,35,0.00,,,-99.99,HOBO +U30 +Weather +,2013-04-28 22:45:00,
2013-04-28 19:00:00,60.4,33.7,-100.00,SSW,195,7.4,14.1,36,0.00,,,-99.99,HOBO +U30 +Weather +,2013-04-28 23:00:00,
2013-04-28 19:15:00,59.7,33.4,-100.00,SSW,198,8.3,15.9,37,0.00,,,-99.99,HOBO +U30 +Weather +,2013-04-28 23:15:00,
2013-04-28 19:30:00,58.9,32.4,-100.00,South,190,6.7,13.6,36,0.00,,,-99.99,HOBO +U30 +Weather +,2013-04-28 23:30:00,
2013-04-28 19:45:00,57.8,32.2,-100.00,SSW,197,6.3,12.5,37,0.00,,,-99.99,HOBO +U30 +Weather +,2013-04-28 23:45:00,
2013-04-28 20:00:00,57.3,31.9,-100.00,South,190,0.4,8.3,38,0.00,,,-99.99,HOBO +U30 +Weather +,2013-04-29 00:00:00,
2013-04-28 20:15:00,56.3,31.7,-100.00,South,187,2.9,10.7,39,0.00,,,-99.99,HOBO +U30 +Weather +,2013-04-29 00:15:00,
2013-04-28 20:30:00,56.0,30.7,-100.00,South,190,6.3,14.5,37,0.00,,,-99.99,HOBO +U30 +Weather +,2013-04-29 00:30:00,
2013-04-28 20:45:00,55.3,30.6,-100.00,South,188,4.9,10.1,38,0.00,,,-99.99,HOBO +U30 +Weather +,2013-04-29 00:45:00,
2013-04-28 21:00:00,54.1,30.4,-100.00,South,188,4.3,11.6,40,0.00,,,-99.99,HOBO +U30 +Weather +,2013-04-29 01:00:00,
2013-04-28 21:15:00,53.9,29.8,-100.00,South,188,1.6,10.3,39,0.00,,,-99.99,HOBO +U30 +Weather +,2013-04-29 01:15:00,
2013-04-28 21:30:00,53.6,29.6,-100.00,SSW,195,5.8,10.7,39,0.00,,,-99.99,HOBO +U30 +Weather +,2013-04-29 01:30:00,
2013-04-28 21:45:00,52.6,29.3,-100.00,SSW,201,4.5,8.7,40,0.00,,,-99.99,HOBO +U30 +Weather +,2013-04-29 01:45:00,
2013-04-28 22:00:00,51.5,29.6,-100.00,SSW,205,2.9,7.2,42,0.00,,,-99.99,HOBO +U30 +Weather +,2013-04-29 02:00:00,
2013-04-28 22:15:00,51.4,29.4,-100.00,SSW,199,3.8,8.3,42,0.00,,,-99.99,HOBO +U30 +Weather +,2013-04-29 02:15:00,
2013-04-28 22:30:00,50.5,29.4,-100.00,SSW,194,3.4,7.4,44,0.00,,,-99.99,HOBO +U30 +Weather +,2013-04-29 02:30:00,
2013-04-28 22:45:00,49.9,29.4,-100.00,SSW,205,2.5,6.7,45,0.00,,,-99.99,HOBO +U30 +Weather +,2013-04-29 02:45:00,
2013-04-28 23:00:00,49.5,29.5,-100.00,SSW,194,2.5,5.8,45,0.00,,,-99.99,HOBO +U30 +Weather +,2013-04-29 03:00:00,
2013-04-28 23:15:00,49.8,29.3,-100.00,South,188,2.5,6.7,44,0.00,,,-99.99,HOBO +U30 +Weather +,2013-04-29 03:15:00,
2013-04-28 23:30:00,49.4,28.7,-100.00,SSW,201,3.4,7.4,44,0.00,,,-99.99,HOBO +U30 +Weather +,2013-04-29 03:30:00,
2013-04-28 23:45:00,49.3,28.8,-100.00,SSW,208,2.9,6.3,44,0.00,,,-99.99,HOBO +U30 +Weather +,2013-04-29 03:45:00,